CW2939 Weather Reports


time (UTC)temp
C
wind
direction
speed
KPH
gust
KPH
rain 1hr
cm
rain 24hr
cm
rain mn
cm
humidity
%
barometer
mb
20260505041403 16 286 22.5 32.2 0.00 0.00 0.00 59 1012.1
20260505040904 16 293 19.3 29.0 0.00 0.00 0.00 62 1012.2
20260505040404 16 303 22.5 40.2 0.00 0.00 0.00 58 1012.2
20260505033903 16 286 20.9 45.1 0.00 0.00 0.00 58 1012.2
20260505031404 16 289 20.9 33.8 0.00 0.00 0.00 59 1012.3
20260505030903 16 280 19.3 35.4 0.00 0.00 0.00 57 1012.3
20260505024904 16 274 20.9 33.8 0.00 0.00 0.00 56 1012.4
20260505021903 16 309 25.7 45.1 0.00 0.00 0.00 56 1012.6
20260505021403 16 294 24.1 33.8 0.00 0.00 0.00 58 1012.6
20260505020903 16 290 22.5 41.8 0.00 0.00 0.00 55 1012.6
20260505020403 16 302 22.5 32.2 0.00 0.00 0.00 60 1012.8
20260505014903 16 309 16.1 24.1 0.00 0.00 0.00 61 1012.9
20260505014403 16 310 16.1 24.1 0.00 0.00 0.00 62 1012.9
20260505013903 16 298 16.1 22.5 0.00 0.00 0.00 61 1012.9
20260505013403 16 302 14.5 32.2 0.00 0.00 0.00 62 1013.1
20260505004903 16 282 19.3 27.4 0.00 0.00 0.00 61 1013.4
20260505004403 16 267 19.3 27.4 0.00 0.00 0.00 60 1013.3
20260505003904 16 291 11.3 25.7 0.00 0.00 0.00 61 1013.4
20260504233403 17 286 19.3 37.0 0.00 0.00 0.00 59 1013.7
20260504231904 16 279 14.5 20.9 0.00 0.00 0.00 60 1014.0
20260504230404 17 311 9.7 19.3 0.00 0.00 0.00 59 1014.1
20260504224403 17 310 9.7 19.3 0.00 0.00 0.00 57 1014.2
20260504223404 17 279 11.3 19.3 0.00 0.00 0.00 55 1014.2
20260504221404 17 270 8.0 19.3 0.00 0.00 0.00 53 1014.2
20260504220903 17 277 14.5 20.9 0.00 0.00 0.00 54 1014.2
20260504220403 17 285 12.9 19.3 0.00 0.00 0.00 52 1014.3
20260504213404 18 304 8.0 12.9 0.00 0.00 0.00 50 1014.2
20260504203405 18 305 11.3 16.1 0.00 0.00 0.00 49 1013.7
20260504201405 18 307 8.0 14.5 0.00 0.00 0.00 48 1013.5
20260504200904 19 319 9.7 19.3 0.00 0.00 0.00 46 1013.5
20260504194905 19 304 11.3 20.9 0.00 0.00 0.00 47 1013.0
20260504193405 20 291 19.3 32.2 0.00 0.00 0.00 44 1012.9
20260504191405 20 288 19.3 27.4 0.00 0.00 0.00 44 1012.7
20260504181905 21 261 14.5 25.7 0.00 0.00 0.00 46 1012.2
20260504174905 21 9 1.6 9.7 0.00 0.00 0.00 47 1012.2
20260504173405 21 47 9.7 20.9 0.00 0.00 0.00 50 1012.1
20260504170405 23 309 9.7 19.3 0.00 0.00 0.00 35 1012.3
20260504140404 24 282 9.7 19.3 0.00 0.00 0.00 41 1013.0
20260504080405 18 261 3.2 4.8 0.00 0.00 0.00 67 1014.1
20260504070404 17 92 1.6 4.8 0.00 0.00 0.00 73 1013.7
20260504050405 15 319 1.6 4.8 0.00 0.00 0.00 82 1012.8